EW4092 Weather Reports


time (UTC)temp
C
wind
direction
speed
KPH
gust
KPH
rain 1hr
cm
rain 24hr
cm
rain mn
cm
humidity
%
barometer
mb
20260902063052 18 118 4.8 9.7 0.00 0.00 0.00 57 1007.8
20260902060054 18 134 4.8 16.1 0.00 0.00 0.00 55 1007.5
20260902054546 18 124 6.4 12.9 0.00 0.00 0.00 56 1007.4
20260902053046 18 114 1.6 12.9 0.00 0.00 0.00 57 1007.3
20260902051546 18 110 3.2 12.9 0.00 0.00 0.00 57 1007.3
20260902044604 19 134 3.2 14.5 0.00 0.00 0.00 56 1006.7
20260902043043 19 152 4.8 16.1 0.00 0.00 0.00 56 1006.5
20260902041542 19 114 4.8 14.5 0.00 0.00 0.00 56 1006.3
20260902040050 20 147 0.0 11.3 0.00 0.00 0.00 56 1006.1
20260902034548 20 96 3.2 12.9 0.00 0.00 0.00 55 1005.9
20260902033041 20 119 3.2 16.1 0.00 0.00 0.00 54 1005.6
20260902031540 21 179 1.6 9.7 0.00 0.00 0.00 53 1005.5
20260902030039 21 232 1.6 9.7 0.00 0.00 0.00 51 1005.2
20260902024542 22 181 4.8 12.9 0.00 0.00 0.00 49 1004.9
20260902023042 23 100 4.8 20.9 0.00 0.00 0.00 46 1004.6
20260902021548 23 86 6.4 19.3 0.00 0.00 0.00 46 1004.5
20260902020038 24 126 4.8 11.3 0.00 0.00 0.00 45 1004.4
20260902014541 25 156 1.6 12.9 0.00 0.00 0.00 42 1004.2
20260902013035 26 141 11.3 20.9 0.00 0.00 0.00 36 1004.0
20260902011536 26 87 1.6 20.9 0.00 0.00 0.00 36 1003.8
20260902010033 26 307 1.6 14.5 0.00 0.00 0.00 35 1004.0
20260902004532 27 46 6.4 16.1 0.00 0.00 0.00 32 1004.1
20260902003038 27 46 1.6 12.9 0.00 0.00 0.00 32 1004.2
20260902001531 28 34 1.6 11.3 0.00 0.00 0.00 31 1004.1
20260902000030 28 44 3.2 12.9 0.00 0.00 0.00 29 1004.1
20260901234529 28 21 3.2 14.5 0.00 0.00 0.00 31 1004.0
20260901233029 28 343 4.8 12.9 0.00 0.00 0.00 30 1004.1
20260901231528 28 29 4.8 9.7 0.00 0.00 0.00 29 1004.0
20260901230027 29 242 3.2 9.7 0.00 0.00 0.00 31 1004.1
20260901224525 28 330 3.2 11.3 0.00 0.00 0.00 29 1004.1
20260901223034 28 44 3.2 12.9 0.00 0.00 0.00 30 1004.2
20260901221519 28 290 1.6 6.4 0.00 0.00 0.00 30 1004.4
20260901220030 28 321 4.8 9.7 0.00 0.00 0.00 29 1004.5
20260901214513 28 349 4.8 8.0 0.00 0.00 0.00 30 1004.7
20260901213013 27 212 3.2 9.7 0.00 0.00 0.00 32 1004.8
20260901211509 27 252 3.2 12.9 0.00 0.00 0.00 34 1005.1
20260901210011 27 319 3.2 9.7 0.00 0.00 0.00 32 1005.2
20260901204504 27 210 4.8 8.0 0.00 0.00 0.00 31 1005.5
20260901203004 26 274 1.6 8.0 0.00 0.00 0.00 32 1005.6
20260901201600 26 350 0.0 8.0 0.00 0.00 0.00 34 1005.8
20260901200055 26 340 1.6 6.4 0.00 0.00 0.00 33 1005.9
20260901194552 26 325 0.0 4.8 0.00 0.00 0.00 34 1006.2
20260901193049 25 96 0.0 3.2 0.00 0.00 0.00 38 1006.4
20260901191547 25 47 0.0 4.8 0.00 0.00 0.00 40 1006.5
20260901190144 23 86 1.6 4.8 0.00 0.00 0.00 42 1006.7
20260901184548 23 101 3.2 6.4 0.00 0.00 0.00 45 1006.8
20260901183040 23 113 3.2 8.0 0.00 0.00 0.00 40 1006.8
20260901181538 23 98 3.2 6.4 0.00 0.00 0.00 45 1006.9
20260901180037 22 108 0.0 8.0 0.00 0.00 0.00 42 1007.1
20260901174531 22 111 0.0 3.2 0.00 0.00 0.00 41 1007.2
20260901173029 22 159 0.0 3.2 0.00 0.00 0.00 41 1007.3
20260901171628 22 184 0.0 4.8 0.00 0.00 0.00 40 1007.2
20260901170026 21 229 0.0 8.0 0.00 0.00 0.00 41 1007.3
20260901164522 21 118 0.0 4.8 0.00 0.00 0.00 46 1007.3
20260901163017 19 94 0.0 4.8 0.00 0.00 0.00 56 1007.4
20260901161513 17 63 1.6 3.2 0.00 0.00 0.00 59 1007.6
20260901160011 16 100 0.0 3.2 0.00 0.00 0.00 62 1007.6
20260901154508 16 94 0.0 3.2 0.00 0.00 0.00 60 1007.6
20260901153107 15 98 0.0 4.8 0.00 0.00 0.00 62 1007.8
20260901151507 15 86 0.0 6.4 0.00 0.00 0.00 60 1007.8
20260901150011 15 115 3.2 6.4 0.00 0.00 0.00 59 1007.6
20260901144505 15 112 1.6 6.4 0.00 0.00 0.00 61 1007.6
20260901143005 14 94 1.6 3.2 0.00 0.00 0.00 65 1007.4
20260901141504 13 108 0.0 1.6 0.00 0.00 0.00 68 1007.3
20260901140004 12 108 0.0 3.2 0.00 0.00 0.00 69 1007.3
20260901134628 12 105 0.0 1.6 0.00 0.00 0.00 72 1007.2
20260901133002 12 105 0.0 0.0 0.00 0.00 0.00 71 1007.2
20260901131501 12 105 0.0 0.0 0.00 0.00 0.00 69 1007.2
20260901130000 12 105 0.0 4.8 0.00 0.00 0.00 69 1007.2
20260901124602 12 105 0.0 1.6 0.00 0.00 0.00 70 1007.2
20260901123057 12 103 0.0 1.6 0.00 0.00 0.00 68 1007.1
20260901121605 12 103 0.0 1.6 0.00 0.00 0.00 68 1007.2
20260901120053 13 103 0.0 0.0 0.00 0.00 0.00 67 1007.4
20260901114559 13 103 0.0 1.6 0.00 0.00 0.00 67 1007.5
20260901113051 13 103 0.0 1.6 0.00 0.00 0.00 66 1007.5
20260901111549 13 103 0.0 0.0 0.00 0.00 0.00 67 1007.6
20260901110053 14 103 0.0 1.6 0.00 0.00 0.00 63 1007.5
20260901104546 13 103 0.0 3.2 0.00 0.00 0.00 63 1007.6
20260901103044 14 115 0.0 1.6 0.00 0.00 0.00 64 1007.7
20260901101545 14 115 0.0 4.8 0.00 0.00 0.00 61 1007.8
20260901100046 14 103 0.0 3.2 0.00 0.00 0.00 63 1007.8
20260901094542 14 117 0.0 0.0 0.00 0.00 0.00 63 1007.9
20260901093041 14 117 0.0 1.6 0.00 0.00 0.00 64 1008.0
20260901091548 14 117 0.0 1.6 0.00 0.00 0.00 63 1008.0
20260901090039 14 117 0.0 1.6 0.00 0.00 0.00 62 1007.9
20260901084538 14 117 0.0 0.0 0.00 0.00 0.00 62 1007.9
20260901083036 14 117 0.0 1.6 0.00 0.00 0.00 63 1008.0
20260901081540 13 84 0.0 0.0 0.00 0.00 0.00 65 1008.1
20260901080034 14 84 0.0 1.6 0.00 0.00 0.00 64 1008.0
20260901074532 14 84 0.0 3.2 0.00 0.00 0.00 64 1008.2
20260901073030 14 112 0.0 0.0 0.00 0.00 0.00 65 1008.2
20260901071527 15 112 0.0 0.0 0.00 0.00 0.00 61 1008.2
20260901070022 16 111 0.0 0.0 0.00 0.00 0.00 58 1008.4
20260901064524 16 111 0.0 1.6 0.00 0.00 0.00 56 1008.6